Weather History for KCDC - October, 2013

Change the Weather History Date:

Saturday, October 12, 2013

  Actual Average Record
Temperature  
Mean Temperature 47 °F 51 °F  
Max Temperature 62 °F 68 °F 84 °F (1950)
Min Temperature 31 °F 35 °F 20 °F (1969)
Degree Days  
Heating Degree Days 18 14  
Month to date heating degree days 203 142  
Since 1 July heating degree days 371 285  
Cooling Degree Days 0 0  
Month to date cooling degree days 0 0  
Year to date cooling degree days 667 588  
Moisture  
Dew Point 32 °F    
Average Humidity 62    
Maximum Humidity 92    
Minimum Humidity 32    
Precipitation  
Precipitation 0.00 in 0.04 in 0.92 in (1980)
Month to date precipitation 0.23 0.47  
Year to date precipitation 13.27 8.67  
Sea Level Pressure  
Sea Level Pressure 29.95 in    
Wind  
Wind Speed 7 mph (SSW)    
Max Wind Speed 21 mph    
Max Gust Speed 28 mph    
Visibility 10 miles    
Events      
T = Trace of Precipitation, MM = Missing Value Source: NWS Daily Summary

Daily Weather History Graph

Daily Weather History Graph

Search for Another Location

Airport or City:

Trip Planner

Search our weather history database for the weather conditions in past years. The results will help you decide how hot, cold, wet, or windy it might be!

Date:

Astronomy

Oct. 12, 2013 Rise Set
Actual Time 7:38 AM MDT 6:58 PM MDT
Civil Twilight 7:11 AM MDT 7:25 PM MDT
Nautical Twilight 6:41 AM MDT 7:55 PM MDT
Astronomical Twilight 6:11 AM MDT 8:25 PM MDT
Moon 3:04 PM MDT (10/12) 12:52 AM MDT (10/12)
Length of Visible Light 12h 13m
Length of Day
11h 20m
First Quarter, 59% of the Moon is Illuminated
Oct 12
First Quarter
Oct 18
Full
Oct 26
Last Quarter
Nov 3
New
Nov 9
First Quarter

Hourly Weather History & Observations

Time (MDT) Temp. Windchill Dew Point Humidity Pressure Visibility Wind Dir Wind Speed Gust Speed Precip Events Conditions
12:53 AM 42.1 °F - 30.9 °F 65% 29.99 in 10.0 mi Calm Calm - N/A   Clear
1:53 AM 41.0 °F - 30.9 °F 67% 29.99 in 10.0 mi Calm Calm - N/A   Clear
2:53 AM 41.0 °F - 30.0 °F 65% 29.99 in 10.0 mi Calm Calm - N/A   Clear
3:53 AM 37.0 °F 34.5 °F 30.0 °F 76% 29.99 in 10.0 mi SSE 3.5 mph - N/A   Clear
4:53 AM 35.1 °F 32.2 °F 28.9 °F 78% 30.00 in 10.0 mi SW 3.5 mph - N/A   Clear
5:53 AM 32.0 °F - 28.9 °F 88% 30.03 in 10.0 mi Calm Calm - N/A   Clear
6:53 AM 30.9 °F - 28.0 °F 89% 30.04 in 10.0 mi Calm Calm - N/A   Clear
7:53 AM 32.0 °F 28.7 °F 28.9 °F 88% 30.04 in 10.0 mi SE 3.5 mph - N/A   Clear
8:53 AM 37.0 °F 34.5 °F 32.0 °F 82% 30.05 in 10.0 mi South 3.5 mph - N/A   Clear
9:53 AM 48.9 °F - 34.0 °F 56% 30.01 in 10.0 mi Calm Calm - N/A   Clear
10:53 AM 53.1 °F - 36.0 °F 52% 30.00 in 10.0 mi SW 5.8 mph - N/A   Clear
11:53 AM 57.0 °F - 32.0 °F 39% 29.98 in 10.0 mi SSW 9.2 mph 16.1 mph N/A   Clear
12:53 PM 60.1 °F - 33.1 °F 36% 29.94 in 10.0 mi WSW 15.0 mph 19.6 mph N/A   Clear
1:53 PM 60.1 °F - 32.0 °F 35% 29.91 in 10.0 mi SSW 17.3 mph 23.0 mph N/A   Clear
2:53 PM 61.0 °F - 30.9 °F 32% 29.88 in 10.0 mi SW 20.7 mph 27.6 mph N/A   Clear
3:53 PM 61.0 °F - 33.1 °F 35% 29.88 in 10.0 mi SSW 17.3 mph 24.2 mph N/A   Clear
4:53 PM 60.1 °F - 30.9 °F 33% 29.88 in 10.0 mi SW 17.3 mph 26.5 mph N/A   Clear
5:53 PM 59.0 °F - 30.0 °F 33% 29.90 in 10.0 mi SW 11.5 mph 21.9 mph N/A   Clear
6:53 PM 54.0 °F - 32.0 °F 43% 29.92 in 10.0 mi SW 5.8 mph - N/A   Clear
7:53 PM 50.0 °F - 32.0 °F 50% 29.92 in 10.0 mi South 5.8 mph - N/A   Clear
8:53 PM 46.9 °F - 34.0 °F 61% 29.91 in 10.0 mi South 5.8 mph - N/A   Clear
9:53 PM 48.0 °F - 34.0 °F 58% 29.88 in 10.0 mi SSW 8.1 mph - N/A   Clear
10:53 PM 50.0 °F - 34.0 °F 54% 29.86 in 10.0 mi SW 10.4 mph - N/A   Clear
11:53 PM 48.0 °F - 34.0 °F 58% 29.86 in 10.0 mi SW 8.1 mph - N/A   Clear